When you browse on this site, cookies collect data to enhance your experience and personalize the content and advertising you see.
Visit our Privacy Policy to learn more. By continuing to use the site, you agree to this use of cookies and data.
  • In Belgium
  • List of Countries
  • For 7 days
  • Water Temperature
  • Satellite Maps
  • Weather Map
  • Weather Widgets
  • user-avatar
    Login

    Hourly Weather Zhitischi

    Today, 26 May, Sunday

    Time Temperature Precipitation Wind Pressure Humidity
    00:00 +13°C° 0 mm 2 mps 736 mmHg 98%
    01:00 +13°C° 0 mm 2 mps 736 mmHg 98%
    02:00 +11°C° 0 mm 1 mps 736 mmHg 97%
    03:00 +12°C° 0 mm 1 mps 736 mmHg 97%
    04:00 +12°C° 0 mm 1 mps 736 mmHg 96%
    05:00 +12°C° 0 mm 2 mps 737 mmHg 95%
    06:00 +14°C° 0.1 mm 2 mps 737 mmHg 89%
    07:00 +15°C° 0.1 mm 2 mps 737 mmHg 83%
    08:00 +17°C° 0.1 mm 2 mps 737 mmHg 77%
    09:00 +18°C° 0.1 mm 2 mps 737 mmHg 69%
    10:00 +19°C° 0.1 mm 3 mps 737 mmHg 61%
    11:00 +20°C° 0.1 mm 3 mps 737 mmHg 53%
    12:00 +20°C° 0 mm 3 mps 737 mmHg 51%
    13:00 +20°C° 0 mm 3 mps 737 mmHg 49%
    14:00 +21°C° 0 mm 3 mps 736 mmHg 47%
    15:00 +21°C° 0 mm 3 mps 736 mmHg 49%
    16:00 +20°C° 0 mm 2 mps 736 mmHg 51%
    17:00 +20°C° 0 mm 2 mps 736 mmHg 53%
    18:00 +18°C° 0 mm 2 mps 736 mmHg 59%
    19:00 +18°C° 0 mm 1 mps 736 mmHg 65%
    20:00 +15°C° 0 mm 1 mps 736 mmHg 71%
    21:00 +14°C° 0 mm 1 mps 736 mmHg 74%
    22:00 +13°C° 0 mm 2 mps 736 mmHg 77%
    23:00 +12°C° 0 mm 2 mps 736 mmHg 81%

    Tomorrow, 27 May, Monday

    Time Temperature Precipitation Wind Pressure Humidity
    00:00 +12°C° 0 mm 2 mps 736 mmHg 82%
    01:00 +10°C° 0 mm 3 mps 736 mmHg 84%
    02:00 +10°C° 0 mm 3 mps 736 mmHg 85%
    03:00 +10°C° 0 mm 4 mps 736 mmHg 84%
    04:00 +10°C° 0 mm 4 mps 736 mmHg 83%
    05:00 +10°C° 0 mm 4 mps 737 mmHg 83%
    06:00 +11°C° 0 mm 4 mps 737 mmHg 77%
    07:00 +12°C° 0 mm 5 mps 737 mmHg 72%
    08:00 +13°C° 0 mm 5 mps 738 mmHg 66%
    09:00 +13°C° 0 mm 5 mps 738 mmHg 65%
    10:00 +14°C° 0 mm 5 mps 738 mmHg 64%
    11:00 +14°C° 0 mm 5 mps 739 mmHg 63%
    12:00 +14°C° 0.1 mm 5 mps 739 mmHg 65%
    13:00 +15°C° 0.1 mm 5 mps 739 mmHg 66%
    14:00 +15°C° 0.1 mm 5 mps 739 mmHg 68%
    15:00 +15°C° 0 mm 5 mps 739 mmHg 71%
    16:00 +15°C° 0 mm 4 mps 739 mmHg 75%
    17:00 +14°C° 0 mm 4 mps 740 mmHg 78%
    18:00 +14°C° 0.1 mm 3 mps 740 mmHg 81%
    19:00 +14°C° 0.1 mm 3 mps 740 mmHg 85%
    20:00 +14°C° 0.1 mm 2 mps 739 mmHg 88%
    21:00 +13°C° 0.6 mm 3 mps 740 mmHg 91%
    22:00 +14°C° 0.6 mm 3 mps 740 mmHg 93%
    23:00 +14°C° 0.6 mm 4 mps 740 mmHg 95%

    Day after tomorrow, 28 May, Tuesday

    Time Temperature Precipitation Wind Pressure Humidity
    00:00 +14°C° 0.1 mm 3 mps 740 mmHg 95%
    01:00 +13°C° 0.1 mm 3 mps 740 mmHg 96%
    02:00 +13°C° 0.1 mm 3 mps 741 mmHg 96%
    03:00 +13°C° 0 mm 3 mps 741 mmHg 96%
    04:00 +14°C° 0 mm 3 mps 741 mmHg 96%
    05:00 +14°C° 0 mm 3 mps 742 mmHg 95%
    06:00 +16°C° 0 mm 3 mps 742 mmHg 90%
    07:00 +18°C° 0 mm 3 mps 742 mmHg 85%
    08:00 +19°C° 0 mm 3 mps 742 mmHg 80%
    09:00 +20°C° 0.4 mm 3 mps 743 mmHg 76%
    10:00 +21°C° 0.4 mm 4 mps 743 mmHg 73%
    11:00 +22°C° 0.4 mm 4 mps 743 mmHg 70%
    12:00 +23°C° 0.3 mm 4 mps 743 mmHg 66%
    13:00 +25°C° 0.3 mm 4 mps 743 mmHg 62%
    14:00 +25°C° 0.3 mm 3 mps 743 mmHg 58%
    15:00 +25°C° 0.7 mm 3 mps 743 mmHg 65%
    16:00 +24°C° 0.7 mm 2 mps 743 mmHg 73%
    17:00 +23°C° 0.7 mm 2 mps 743 mmHg 80%
    18:00 +21°C° 0.4 mm 2 mps 743 mmHg 84%
    19:00 +20°C° 0.4 mm 2 mps 743 mmHg 87%
    20:00 +19°C° 0.4 mm 2 mps 743 mmHg 91%
    21:00 +18°C° 0.4 mm 3 mps 743 mmHg 92%
    22:00 +18°C° 0.4 mm 3 mps 742 mmHg 93%
    23:00 +18°C° 0.4 mm 3 mps 742 mmHg 95%

    29 May, Wednesday

    Time Temperature Precipitation Wind Pressure Humidity
    00:00 +18°C° 0 mm 3 mps 742 mmHg 94%
    01:00 +18°C° 0 mm 3 mps 743 mmHg 94%
    02:00 +17°C° 0 mm 4 mps 743 mmHg 94%
    03:00 +17°C° 0 mm 4 mps 743 mmHg 94%
    04:00 +17°C° 0 mm 4 mps 743 mmHg 93%
    05:00 +18°C° 0 mm 4 mps 743 mmHg 93%
    06:00 +19°C° 0 mm 4 mps 744 mmHg 87%
    07:00 +21°C° 0 mm 4 mps 744 mmHg 81%
    08:00 +22°C° 0 mm 4 mps 744 mmHg 75%
    09:00 +25°C° 0 mm 5 mps 744 mmHg 68%
    10:00 +26°C° 0 mm 5 mps 744 mmHg 61%
    11:00 +28°C° 0 mm 5 mps 744 mmHg 54%
    12:00 +28°C° 0 mm 5 mps 744 mmHg 51%
    13:00 +28°C° 0 mm 5 mps 744 mmHg 49%
    14:00 +29°C° 0 mm 5 mps 744 mmHg 46%
    15:00 +28°C° 0 mm 5 mps 744 mmHg 50%
    16:00 +28°C° 0 mm 4 mps 744 mmHg 55%
    17:00 +28°C° 0 mm 4 mps 744 mmHg 59%
    18:00 +26°C° 0 mm 3 mps 744 mmHg 65%
    19:00 +24°C° 0 mm 3 mps 744 mmHg 71%
    20:00 +22°C° 0 mm 3 mps 744 mmHg 77%
    21:00 +21°C° 0 mm 3 mps 744 mmHg 78%
    22:00 +21°C° 0 mm 3 mps 745 mmHg 80%
    23:00 +20°C° 0 mm 3 mps 745 mmHg 81%

    30 May, Thursday

    Time Temperature Precipitation Wind Pressure Humidity
    00:00 +19°C° 0 mm 3 mps 745 mmHg 84%
    01:00 +19°C° 0 mm 3 mps 745 mmHg 88%
    02:00 +18°C° 0 mm 3 mps 745 mmHg 91%
    03:00 +18°C° 0 mm 3 mps 745 mmHg 90%
    04:00 +19°C° 0 mm 3 mps 745 mmHg 89%
    05:00 +19°C° 0 mm 3 mps 745 mmHg 87%
    06:00 +21°C° 0 mm 4 mps 745 mmHg 81%
    07:00 +22°C° 0 mm 4 mps 745 mmHg 74%
    08:00 +25°C° 0 mm 4 mps 745 mmHg 68%
    09:00 +26°C° 0 mm 5 mps 745 mmHg 63%
    10:00 +27°C° 0 mm 5 mps 745 mmHg 57%
    11:00 +28°C° 0 mm 5 mps 745 mmHg 52%
    12:00 +28°C° 0.1 mm 5 mps 745 mmHg 52%
    13:00 +28°C° 0.1 mm 5 mps 745 mmHg 52%
    14:00 +28°C° 0.1 mm 5 mps 745 mmHg 52%
    15:00 +28°C° 0.3 mm 4 mps 745 mmHg 58%
    16:00 +27°C° 0.3 mm 3 mps 744 mmHg 64%
    17:00 +26°C° 0.3 mm 3 mps 744 mmHg 71%
    18:00 +24°C° 0.3 mm 2 mps 745 mmHg 77%
    19:00 +21°C° 0.3 mm 2 mps 745 mmHg 83%
    20:00 +20°C° 0.3 mm 1 mps 745 mmHg 89%
    21:00 +20°C° 0 mm 1 mps 745 mmHg 91%
    22:00 +19°C° 0 mm 1 mps 745 mmHg 92%
    23:00 +19°C° 0 mm 1 mps 745 mmHg 93%

    31 May, Friday

    Time Temperature Precipitation Wind Pressure Humidity
    00:00 +18°C° 0 mm 1 mps 745 mmHg 95%
    01:00 +18°C° 0 mm 1 mps 745 mmHg 96%
    02:00 +16°C° 0 mm 1 mps 745 mmHg 98%
    03:00 +16°C° 0.4 mm 1 mps 745 mmHg 97%
    04:00 +17°C° 0.4 mm 2 mps 745 mmHg 97%
    05:00 +17°C° 0.4 mm 2 mps 746 mmHg 97%
    06:00 +16°C° 0.5 mm 2 mps 746 mmHg 96%
    07:00 +13°C° 0.5 mm 3 mps 746 mmHg 95%
    08:00 +12°C° 0.5 mm 4 mps 746 mmHg 94%
    09:00 +13°C° 0 mm 3 mps 746 mmHg 86%
    10:00 +16°C° 0 mm 3 mps 746 mmHg 77%
    11:00 +17°C° 0 mm 3 mps 746 mmHg 69%
    12:00 +18°C° 0 mm 3 mps 746 mmHg 68%
    13:00 +18°C° 0 mm 2 mps 746 mmHg 67%
    14:00 +19°C° 0 mm 2 mps 745 mmHg 66%
    15:00 +19°C° 0 mm 2 mps 745 mmHg 67%
    16:00 +20°C° 0 mm 1 mps 745 mmHg 68%
    17:00 +20°C° 0 mm 1 mps 745 mmHg 69%
    18:00 +19°C° 0.2 mm 1 mps 744 mmHg 76%
    19:00 +16°C° 0.2 mm 2 mps 744 mmHg 83%
    20:00 +15°C° 0.2 mm 2 mps 744 mmHg 90%
    21:00 +14°C° 0.4 mm 2 mps 744 mmHg 91%
    22:00 +14°C° 0.4 mm 1 mps 744 mmHg 92%
    23:00 +13°C° 0.4 mm 1 mps 744 mmHg 93%
    Show more